Location: *
(49.8044°N, 4.0558°E)
Time: 11:15:42
(UTC+00:00)

STARLINK-1226 - Pass Details

Date: 09 April 2020
Orbit: 377 x 382 km, 53.0° (Epoch: 28 May)

Event Time Altitude Azimuth Distance (km) Brightness Sun altitude
Rises 19:39:34 0° 291° (WNW) 2,271 8.9 -11.5°
Reaches altitude 10° 19:41:40 10° 286° (WNW) 1,413 7.1 -11.8°
Maximum altitude 19:44:44 47° 211° (SSW) 517 3.5 -12.3°
Enters shadow 19:46:32 21° 145° (SE) 934 4.3 -12.5°
